Location: Raven Hill Discovery Center
(45.1336°N, 85.0553°W)
Time: 06:05:33
(UTC-04:00)

Daily predictions for brighter satellites

Satellite Brightness Start Highest point End
(mag) Time Altitude Azimuth Time Altitude Azimuth Time Altitude Azimuth
Cosmos 2227 4.3 20:57:57 10° NNW 21:03:37 84° WSW 21:09:17 10° SSE
Atlas Centaur 2 4.2 20:58:30 10° WSW 21:05:10 27° S 21:11:10 10° SE
Cosmos 1812 4.4 21:04:03 10° NNW 21:07:40 37° W 21:11:15 10° SSW
Tiangong 1 1.2 21:05:29 10° W 21:08:11 46° S 21:10:51 10° ESE
Resurs 01 Rocket 1.7 21:05:38 10° SSE 21:10:05 86° E 21:14:35 10° NNW
Cosmos 1975 Rocket 4.0 21:07:07 10° NNW 21:11:29 53° W 21:15:47 10° S
Cosmos 2151 Rocket 3.6 21:15:28 10° S 21:19:47 62° E 21:24:08 10° NNE
Cosmos 1602 3.6 21:19:41 10° S 21:23:30 77° E 21:27:21 10° NNE
EXPRESS MD2 2.8 21:21:11 10° SW 21:23:42 62° SSE 21:27:59 10° ENE
ATLAS 2AS CENTAUR R/B 3.5 21:16:46 10° S 21:23:42 39° ESE 21:31:00 10° NE
Meteor 1-11 Rocket 3.8 21:24:43 10° S 21:30:28 64° E 21:36:08 10° NNE
NOSS 3-1 (A) 4.2 21:24:52 10° SW 21:30:38 57° NW 21:37:14 10° NNE
ARGOS 4.4 21:27:04 11° ESE 21:31:04 24° ENE 21:35:16 10° N
NOSS 2-3 (E) 4.1 21:29:38 10° SSW 21:34:08 49° ESE 21:39:22 10° NE
Cosmos 2263 Rocket 2.3 21:28:41 10° NNW 21:34:24 68° ENE 21:39:53 11° SE
Cosmos 1452 Rocket 3.9 21:29:13 10° SSW 21:34:29 71° WNW 21:39:47 10° NNE
Cosmos 1850 Rocket 4.0 21:29:18 10° NNW 21:34:40 79° ENE 21:39:58 10° SSE
Helios 1A 3.4 21:31:37 10° SE 21:35:41 47° ENE 21:39:47 10° N
Cosmos 1536 Rocket 3.5 21:31:28 10° N 21:35:49 88° E 21:40:09 10° S
Cosmos 839 Rocket 4.1 21:30:18 10° SW 21:36:31 83° NW 21:42:54 10° NNE
Cosmos 1420 Rocket 4.0 21:31:31 10° SSW 21:36:42 87° ESE 21:41:55 10° NNE
Cosmos 2322 Rocket 2.2 21:32:48 10° SSW 21:38:27 70° ESE 21:44:09 10° NNE
Cosmos 1633 4.4 21:37:58 10° SW 21:41:18 35° WNW 21:44:41 10° N
Cosmos 1844 Rocket 4.2 21:37:02 10° N 21:41:23 22° NE 21:45:14 12° E
SPOT 5 4.2 21:44:52 15° ESE 21:47:29 23° ENE 21:51:07 10° NNE
CZ-4B DEB 3.3 21:46:10 21° ESE 21:47:31 34° ENE 21:50:11 10° N
YAOGAN 6 2.4 21:45:29 12° SSE 21:48:47 72° ENE 21:52:18 10° N
Meteor 1-23 Rocket 4.2 21:43:55 10° N 21:49:28 66° ENE 21:54:51 11° SSE
SL-16 R/B 2.2 21:44:15 10° SSW 21:49:54 85° ESE 21:55:37 10° NNE
SeaSat 1 2.4 21:45:00 10° NNE 21:49:57 78° ESE 21:54:53 10° SSW
Lacrosse 5 2.2 21:45:49 10° SSW 21:50:34 42° SE 21:55:21 10° ENE
Cosmos 1939 Rocket 3.4 21:55:51 10° S 21:59:46 59° W 22:03:40 10° NNW
Cosmos 2322 4.2 21:55:16 10° S 22:00:20 35° ESE 22:05:27 10° NE
USA 186 4.2 21:58:38 10° SSW 22:01:25 24° W 22:04:13 10° NW
MetOp-B 4.5 21:59:01 19° SE 22:02:38 48° ENE 22:07:46 10° N
BREEZE M DEB (TANK) 3.5 21:56:03 10° SSW 22:03:03 29° SSE 22:04:17 24° ESE
Cosmos 1536 2.9 21:59:35 10° SSW 22:03:40 80° W 22:07:45 10° N
Lacrosse 5 rocket 3.8 22:01:59 10° W 22:03:40 13° WSW 22:05:22 10° SSW
NOSS 2-3 (C) 3.9 22:03:00 10° SW 22:07:44 88° ESE 22:13:22 10° NE
Cosmos 1500 4.1 22:08:14 27° ESE 22:08:52 29° E 22:12:16 10° NNE
COSMOS 2428 3.7 22:09:17 23° ESE 22:10:19 24° ESE 22:14:47 10° NE
Cosmos 2360 Rocket 2.3 22:06:22 10° S 22:11:49 53° ESE 22:17:17 10° NE
Cosmos 1980 Rocket 4.5 22:08:42 10° WSW 22:13:24 27° NW 22:18:08 10° N
SL-8 R/B 3.7 22:11:20 10° WNW 22:16:08 77° NNE 22:18:48 26° E
USA 238 DEB 3.9 22:11:46 10° NW 22:18:51 67° NE 22:23:13 25° SE
USA 238 3.9 22:11:52 10° NW 22:18:57 67° NE 22:23:19 25° SE
SL-08 RB Rocket 4.2 22:17:33 29° ESE 22:19:18 42° ENE 22:23:36 10° N
Cosmos 1455 Rocket 4.3 22:20:37 24° E 22:20:40 24° E 22:24:16 10° NE
Meteor 1-5 Rocket 4.1 22:15:52 10° SSW 22:21:12 82° WNW 22:26:32 10° N
Helios 1B rocket 2.5 22:19:43 10° NNE 22:23:51 80° WNW 22:27:56 10° SSW
Cosmos 2333 Rocket 4.1 22:25:45 13° ENE 22:25:45 13° ENE 22:26:57 10° ENE
Meteor 1-29 2.8 22:22:08 10° NNE 22:25:35 90° SW 22:27:31 24° SSW
Abrixas rocket 2.9 22:24:11 10° WNW 22:27:24 49° N 22:28:28 34° ENE
Cosmos 1244 Rocket 4.5 22:24:44 18° SSE 22:29:18 61° E 22:35:21 10° NNE
ERS-1 Rocket 2.9 22:26:32 23° SSE 22:29:41 86° WSW 22:34:45 10° NNW
NOAA 11 4.3 22:26:37 19° S 22:30:38 79° WSW 22:36:11 10° NNW
Terra 3.1 22:33:34 23° E 22:34:26 24° ENE 22:38:15 10° N
ATLAS 3B R/B 2.6 22:29:27 10° NW 22:36:16 89° SW 22:39:36 32° SE
Okean 1 Rocket 3.9 22:33:52 10° SSW 22:38:05 50° WNW 22:42:22 10° N
SAR-Lupe-4 4.0 22:37:17 34° SSW 22:38:37 57° W 22:42:11 10° NNW
H-2A R/B 2.1 22:39:26 38° SE 22:41:08 59° ENE 22:46:02 10° N
Cosmos 2237 Rocket 4.3 22:45:35 11° ENE 22:45:35 11° ENE 22:45:58 10° ENE
Tiangong 1 3.3 22:41:11 10° WSW 22:42:05 15° SW 22:42:05 15° SW
Cosmos 1025 Rocket 3.7 22:40:03 10° NNW 22:44:13 51° W 22:46:32 24° SSW
Okean 1-7 Rocket 4.2 22:41:36 10° NNW 22:45:59 54° W 22:48:29 24° SSW
MetOp-A 4.4 22:45:35 26° S 22:48:39 68° WSW 22:54:00 10° NNW
Cosmos 1066 Rocket 4.0 22:46:51 10° N 22:52:17 76° ENE 22:54:09 43° SSE
Atlas Centaur 2 4.2 22:48:30 10° WSW 22:53:32 19° SSW 22:54:46 18° S
CARTOSAT-1 4.5 22:53:30 33° ENE 22:53:33 33° ENE 22:57:26 10° N
YAOGAN 11 4.0 22:52:54 57° SSE 22:53:44 81° ENE 22:58:05 10° NNW
Cosmos 1666 4.5 22:55:54 21° NE 22:55:54 21° NE 22:57:41 10° NNE
NOSS 3-2 (C) 4.3 22:48:26 10° NNW 22:55:40 55° NE 22:59:28 31° ESE
Okean 2 4.4 22:53:04 10° NNW 22:56:56 41° W 22:58:40 27° SW
Cosmos 405 3.0 22:59:04 77° N 22:59:04 77° N 23:02:27 10° N
Cosmos 1302 Rocket 3.9 22:57:42 37° S 22:59:50 73° ESE 23:05:06 10° NNE
Cosmos 1486 Rocket 3.9 22:54:48 10° NNW 23:00:05 90° W 23:01:28 51° SSE
Nimbus 7 Rocket 4.4 22:56:52 10° NNE 23:02:40 59° ESE 23:04:11 45° SSE
Cosmos 1602 Rocket 4.4 22:59:01 10° N 23:02:37 35° ENE 23:02:37 35° ENE
BREEZE-M DEB 2.9 22:56:47 10° WNW 23:04:25 77° NNE 23:04:47 68° ENE
Cosmos 1238 Rocket 4.1 22:58:13 10° N 23:04:59 78° W 23:08:05 33° S
H-2A R/B 3.5 23:06:57 25° ENE 23:06:57 25° ENE 23:10:15 10° N
Meteor 1-21 4.5 23:02:04 10° N 23:07:32 50° ENE 23:08:23 46° ESE
Cosmos 1743 3.7 23:09:40 38° NE 23:09:40 38° NE 23:12:14 10° NNE
USA 245 4.2 23:08:09 38° SSW 23:09:48 56° WSW 23:14:03 10° NNW
ARGOS 3.7 23:08:35 31° SSW 23:10:57 53° W 23:16:13 10° NNW
ATLAS 2AS CENTAUR R/B 3.6 23:06:43 10° SW 23:14:27 61° NW 23:22:33 10° NE
Cosmos 2263 Rocket 4.3 23:13:48 10° NW 23:17:44 19° W 23:21:36 10° SW
Cosmos 2278 Rocket 2.7 23:14:38 10° NNW 23:20:04 44° ENE 23:20:56 41° E
Cosmos 1975 3.3 23:19:51 53° WSW 23:20:12 55° WNW 23:24:08 10° N
Cosmos 1745 Rocket 3.8 23:20:54 49° S 23:22:42 83° E 23:28:53 10° N
Cosmos 724 4.2 23:18:20 10° NNW 23:24:16 80° NE 23:25:13 63° SE
NOSS 3-4 (A) 3.9 23:25:52 42° E 23:25:52 42° E 23:30:57 10° NE
NOSS 3-4 (C) 3.9 23:26:02 42° E 23:26:02 42° E 23:31:03 10° NE
SPOT 5 3.6 23:24:06 37° SW 23:25:19 45° W 23:29:49 10° NNW
Cosmos 1844 Rocket 2.7 23:20:12 10° NNW 23:25:53 73° WSW 23:26:53 59° S
Cosmos 2237 4.5 23:20:38 10° SW 23:26:11 66° WNW 23:31:53 10° NNE
CENTAUR R/B 3.9 23:19:10 10° NNW 23:26:22 41° NE 23:30:23 26° E
Cosmos 1626 Rocket 3.8 23:23:00 10° N 23:26:42 59° NNE 23:26:42 59° NNE
BREEZE M DEB (TANK) 3.4 23:22:14 10° WNW 23:27:11 49° N 23:27:11 49° N
Meteor 1-12 Rocket 4.4 23:27:06 36° SSW 23:29:23 68° WNW 23:35:02 10° N
DMSP B5D2-2 3.9 23:24:28 10° NNE 23:29:46 84° ESE 23:30:18 72° S
Lacrosse 5 2.9 23:28:39 10° WSW 23:33:32 46° NNW 23:38:26 10° NE
NOSS 0 Rocket 4.4 23:36:36 45° E 23:36:36 45° E 23:41:41 10° NE
Cosmos 1354 Rocket 3.9 23:31:37 10° NNW 23:36:59 83° WSW 23:37:16 79° SSW
Cosmos 2219 Rocket 2.0 23:41:13 75° ESE 23:41:13 75° ESE 23:46:48 10° NNE
Meteor 2-9 Rocket 4.3 23:41:48 59° E 23:41:48 59° E 23:47:05 10° NNE
SPOT 1/Viking Rocket 4.3 23:41:38 39° SW 23:42:40 44° W 23:47:40 10° NNW
Cosmos 1818 3.5 23:43:30 61° SW 23:44:29 82° NW 23:49:58 10° NE
Cosmos 1386 Rocket 4.5 23:47:32 58° SSW 23:48:50 80° W 23:55:10 10° N
GP-B 3.5 23:44:26 10° N 23:48:07 60° NNW 23:48:07 60° NNW
ATLAS CENTAUR R/B 3.6 23:47:44 10° N 23:49:34 15° NNE 23:49:34 15° NNE
CZ-2C R/B 4.4 23:51:27 26° NE 23:51:27 26° NE 23:54:48 10° N
SL-16 R/B 4.2 23:53:44 15° ENE 23:53:44 15° ENE 23:55:07 10° NE
COSMOS 2428 3.3 23:51:12 28° SW 23:54:10 56° WNW 23:59:50 10° NNE
